Home > Weather > Pointe-Noire > Past weeks

Flag for Congo Past Weather in Pointe-Noire, Congo — Yesterday and Last 2 Weeks

Now
70 °F

Fog.


Feels Like: 70 °F
Forecast: 71 / 78 °F
Wind: No wind

Location: Pointe Airport-Noire

Current Time: Jul 28, 2016 at 5:50:46 AM

Latest Report: Jul 28, 2016 at 5:00 AM


Visibility: 2 mi

Pressure: 29.98 "Hg

Humidity: 83%

Dew Point: 64 °F

Location of Pointe-NoireLocation

Past Weather in Pointe-Noire — Graph

°F

Pointe-Noire Temperature Yesterday

Maximum temperature yesterday: 79 °F (at 11:00 AM)
Minimum temperature yesterday: 66 °F (at 2:00 AM)
Average temperature yesterday: 73 °F

High & Low Weather Summary for the Past Weeks

 TemperatureHumidityPressure
High82 °F (Jul 17, 4:00 PM)100% (Jul 14, 3:00 AM)30.04 "Hg (Jul 14, 3:00 AM)
Low66 °F (Jul 26, 4:00 AM)44% (Jul 26, 2:00 PM)29.86 "Hg (Jul 15, 3:00 PM)
Average74 °F83%29.96 "Hg
* Reported Jul 13 4:00 AM — Jul 28 4:00 AM, Pointe-Noire, Weather by CustomWeather, © 2016

Note: Actual official high and low records may vary slightly from our data, if they occured in-between our weather recording intervals... More about our weather records

Advertising

Pointe-Noire Weather History for the Previous 24 Hours

Scroll right to see more
 ConditionsComfort  
Time TempWeatherWind HumidityBarometerVisibility
4:00 AM
Thu, Jul 28
68 °FFog.2 mph88%29.98 "Hg2 mi
3:00 AM68 °FFog.3 mph88%29.98 "Hg2 mi
2:00 AM66 °FFog.2 mph94%29.98 "Hg2 mi
1:00 AM68 °FPassing clouds.No wind94%29.98 "Hg4 mi
12:00 AM70 °FPassing clouds.2 mph88%29.98 "Hg4 mi
11:00 PM
Wed, Jul 27
72 °FPassing clouds.3 mph83%29.98 "Hg4 mi
10:00 PM72 °FPassing clouds.3 mph83%29.98 "Hg4 mi
9:00 PM73 °FPassing clouds.6 mph74%29.98 "Hg4 mi
8:00 PM73 °FClear.6 mph74%29.95 "Hg4 mi
7:00 PM73 °FClear.6 mph69%29.95 "Hg5 mi
6:00 PM75 °FPassing clouds.7 mph61%29.92 "Hg5 mi
5:00 PM75 °FSunny.12 mph61%29.92 "Hg10 mi
4:00 PM77 °FPassing clouds.10 mph57%29.92 "HgN/A
3:00 PM77 °FPassing clouds.13 mph61%29.95 "HgN/A
2:00 PM77 °FPassing clouds.14 mph61%29.95 "HgN/A
1:00 PM77 °FPassing clouds.12 mph61%29.98 "HgN/A
12:00 PM79 °FPassing clouds.16 mph54%30.01 "HgN/A
11:00 AM79 °FPassing clouds.14 mph58%30.01 "Hg6 mi
10:00 AM75 °FPartly sunny.9 mph74%30.04 "Hg5 mi
9:00 AM72 °FPartly sunny.9 mph83%30.04 "Hg4 mi
8:00 AM70 °FFog.8 mph88%30.01 "Hg2 mi
7:00 AM68 °FFog.2 mph94%30.01 "Hg2 mi
6:00 AM66 °FFog.2 mph100%29.98 "Hg2 mi
5:00 AM66 °FFog.3 mph94%29.98 "Hg2 mi
Weather by CustomWeather, © 2016

See weather overviewHow to use our weather pages